User: anonymous   Login
Location: La Brionne
(46.1728°N, 1.7849°E)
Time: 15:01:00
(UTC+00:00)
Language:

BREEZE-M DEB (TANK) - Orbit

View from above orbital plane
View from above orbital plane
View from above satellite
View from above satellite

Ground track
Ground track

The orbit data is extracted from the following two-line orbital elements,

1 39010U 12065C   21258.79261596  .00001468  00000-0  25507-3 0  9991
2 39010  49.6572  90.7493 4669399 120.8559 293.3531  6.17189083195820
Epoch (UTC): 15 September 2021 19:01:22
Eccentricity: 0.4669399
inclination: 49.6572°
perigee height: 314 km
apogee height: 12038 km
right ascension of ascending node: 90.7493°
argument of perigee: 120.8559°
revolutions per day: 6.17189083
mean anomaly at epoch: 293.3531°
orbit number at epoch: 19582

The dashed part of the orbit path shows where the satellite is in the earth's shadow,  

DLR